Miscellaneous Local Product
Issued by NWS Hastings, NE

Home | Current Version | Previous Version | Text Only | Print | Product List | Glossary On
Versions: 1 2 3 4 5 6 7 8 9 10 11 12 13 14 15 16 17 18 19 20 21 22 23 24 25 26 27 28 29 30 31 32 33 34 35 36 37 38 39 40 41 42 43 44 45 46 47 48 49 50
089
AXUS43 KGID 141902
MISGRI

GID CWA HOURLY WEATHER ROUNDUP
NATIONAL WEATHER SERVICE HASTINGS NE
100 PM CST SUN FEB 14 2016

NOTE: "FAIR" INDICATES FEW OR NO CLOUDS BELOW 12,000 FEET WITH NO
SIGNIFICANT WEATHER AND/OR OBSTRUCTIONS TO VISIBILITY.

...SOUTH CENTRAL NEBRASKA...

CITY           SKY/WX    TMP DP  RH WIND       PRES   REMARKS
GRAND ISLAND   SUNNY     43  31  62 W6        29.84F
HASTINGS       SUNNY     43  30  60 NW6       29.84F
KEARNEY        SUNNY     46  28  49 NW9       29.85F
ORD            MOSUNNY   44  32  62 NW10      29.80F
YORK           MOSUNNY   45  34  65 NW10      29.84S
AURORA         SUNNY     42  32  66 W13       29.85R
LEXINGTON      SUNNY     47  30  52 W9        29.86F
HOLDREGE       SUNNY     43  30  59 W9        29.87S
HEBRON         SUNNY     46  32  58 NW10      29.87F

...NEBRASKA PANHANDLE...

CITY           SKY/WX    TMP DP  RH WIND       PRES   REMARKS
CHADRON        PTSUNNY   45  24  43 W16       29.83F
ALLIANCE       CLOUDY    44  20  38 W5        29.82F
SCOTTSBLUFF    SUNNY     53  22  29 NW24G37   29.82F
SIDNEY         CLOUDY    45  26  47 SW18      29.86F

...WESTERN AND NORTH CENTRAL NEBRASKA...

CITY           SKY/WX    TMP DP  RH WIND       PRES   REMARKS
VALENTINE      PTSUNNY   46  25  43 NW17      29.80F
AINSWORTH      MOSUNNY   44  29  56 NW12      29.81F
ONEILL         CLOUDY    41  32  70 NW12      29.81S
BROKEN BOW     PTSUNNY   50  29  44 NW15      29.82F
IMPERIAL       CLOUDY    44  27  51 SW13      29.89F
NORTH PLATTE   CLOUDY    46  28  49 W10       29.86F
MCCOOK         MOSUNNY   44  28  53 W14       29.90F

...EASTERN NEBRASKA...

CITY           SKY/WX    TMP DP  RH WIND       PRES   REMARKS
NORFOLK        CLOUDY    35  29  78 NW14      29.79F WCI  26
SO SIOUX CITY  CLOUDY    27  18  69 CALM      29.83F
TEKAMAH        CLOUDY    28  20  71 CALM      29.83F
COLUMBUS       CLOUDY    37  27  65 NW10      29.83F WCI  30
ALBION         CLOUDY    39  31  72 NW12      29.81F WCI  32
OMAHA EPPLEY   CLOUDY    36  25  64 NW10      29.81F WCI  28
OFFUTT AFB     SUNNY     39  28  65 W10       29.80F WCI  32
MILLARD        MOSUNNY   37  29  71 NW9       29.82F WCI  31
LINCOLN        CLOUDY    41  30  65 NE3       29.85S
NEBRASKA CITY  PTSUNNY   43  29  59 W10G18    29.83F
BEATRICE       MOSUNNY   46  32  57 N12G22    29.85F
FALLS CITY     CLOUDY    45  26  47 W13G21    29.85F

...NORTHERN KANSAS...

CITY           SKY/WX    TMP DP  RH WIND       PRES   REMARKS
GOODLAND       CLOUDY    47  23  38 W10       29.93F
HILL CITY      CLOUDY    50  28  42 W9        29.92F
NORTON         CLEAR     45  27  49 SW12      29.90
PHILLIPSBURG   SUNNY     52  27  37 CALM      29.90F
SMITH CENTER   SUNNY     50  28  43 W8        29.89F
BELOIT         SUNNY     52  28  40 W6        29.88F
HAYS           CLOUDY    54  23  30 N7        29.91F
RUSSELL        CLOUDY    53  25  33 N8        29.89F
CONCORDIA      SUNNY     50  29  44 NW12      29.87F
SALINA         SUNNY     56  26  31 N6        29.90F
TOPEKA         SUNNY     48  24  39 SW6       29.89F



USA.gov is the U.S. government's official web portal to all federal, state and local government web resources and services.